Location: Fort Worth, Tx
(32.7431°N, 97.3695°W)
Time: 12:10:36
(UTC-05:00)

Transit 2A - All Passes

Search period start: 30 January 2023 00:00
Search period end: 09 February 2023 00:00
Orbit: 594 x 962 km, 66.7° (Epoch: 29 January)

Date Brightness Start Highest point End Pass type
(mag) Time Alt. Az. Time Alt. Az. Time Alt. Az.
30 Jan - 04:00:56 10° N 04:06:28 33° ENE 04:12:07 10° ESE night (unlit)
30 Jan - 05:44:00 10° NW 05:49:40 37° WSW 05:55:24 10° S visible
30 Jan - 18:36:30 10° S 18:40:55 53° ESE 18:45:47 10° NE daylight
30 Jan - 20:21:41 10° W 20:24:30 15° NW 20:27:30 10° NNW visible
31 Jan - 03:26:54 10° N 03:31:46 24° NE 03:36:44 10° ESE night (unlit)
31 Jan - 05:09:11 10° NW 05:15:16 55° WSW 05:21:26 10° S visible
31 Jan - 18:02:31 10° S 18:06:34 32° ESE 18:10:57 10° NE daylight
31 Jan - 19:46:01 10° WSW 19:49:44 23° NW 19:53:47 10° N visible
01 Feb - 02:53:09 10° NNE 02:57:00 17° NE 03:00:55 10° E night (unlit)
01 Feb - 04:34:34 10° NNW 04:40:50 80° WSW 04:47:10 10° SSE night (unlit)
01 Feb - 17:28:58 10° SSE 17:32:16 20° ESE 17:35:47 10° ENE daylight
01 Feb - 19:10:48 10° WSW 19:15:02 34° WNW 19:19:43 10° N daylight
02 Feb - 02:20:05 10° NNE 02:22:09 12° NE 02:24:13 10° ENE night (unlit)
02 Feb - 04:00:05 10° NNW 04:06:19 72° ENE 04:12:39 10° SSE night (unlit)
02 Feb - 05:45:23 10° WNW 05:48:56 16° WSW 05:52:29 10° SW night (unlit)
02 Feb - 16:56:22 10° ESE 16:58:03 12° ESE 16:59:45 10° E daylight
02 Feb - 18:35:55 10° SW 18:40:26 54° WNW 18:45:28 10° NNE daylight
03 Feb - 03:25:44 10° NNW 03:31:45 49° ENE 03:37:53 10° SE night (unlit)
03 Feb - 05:09:47 10° NW 05:14:38 24° WSW 05:19:31 10° SSW night (unlit)
03 Feb - 18:01:18 10° SSW 18:05:54 88° WNW 18:11:01 10° NNE daylight
04 Feb - 02:51:30 10° N 02:57:08 35° ENE 03:02:51 10° ESE night (unlit)
04 Feb - 04:34:40 10° NW 04:40:18 35° WSW 04:45:57 10° S night (unlit)
04 Feb - 17:26:58 10° S 17:31:27 57° ESE 17:36:26 10° NE daylight
04 Feb - 19:12:20 10° W 19:15:07 15° NW 19:18:03 10° NNW daylight
05 Feb - 02:17:26 10° N 02:22:26 25° NE 02:27:30 10° ESE night (unlit)
05 Feb - 03:59:50 10° NW 04:05:54 52° WSW 04:12:01 10° S night (unlit)
05 Feb - 16:52:56 10° S 16:57:05 34° ESE 17:01:37 10° NE daylight
05 Feb - 18:36:36 10° WSW 18:40:19 22° NW 18:44:21 10° N daylight
06 Feb - 01:43:37 10° N 01:47:39 18° NE 01:51:44 10° E night (unlit)
06 Feb - 03:25:10 10° NNW 03:31:27 77° WSW 03:37:46 10° SSE night (unlit)
06 Feb - 16:19:19 10° SSE 16:22:47 21° ESE 16:26:30 10° ENE daylight
06 Feb - 18:01:21 10° WSW 18:05:36 33° WNW 18:10:18 10° N daylight
07 Feb - 01:10:22 10° NNE 01:12:48 12° NE 01:15:13 10° ENE night (unlit)
07 Feb - 02:50:40 10° NNW 02:56:56 75° ENE 03:03:17 10° SSE night (unlit)
07 Feb - 04:36:10 10° WNW 04:39:30 15° WSW 04:42:51 10° SW night (unlit)
07 Feb - 15:46:28 10° SE 15:48:33 13° ESE 15:50:41 10° ENE daylight
07 Feb - 17:26:25 10° SW 17:30:58 52° WNW 17:36:03 10° NNE daylight
08 Feb - 02:16:17 10° NNW 02:22:22 52° ENE 02:28:32 10° SE night (unlit)
08 Feb - 04:00:27 10° WNW 04:05:13 23° WSW 04:09:59 10° SSW night (unlit)
08 Feb - 16:51:46 10° SSW 16:56:25 84° WNW 17:01:37 10° NNE daylight
